Location: *
(58.7167°N, 26.1833°E)
Time: 08:49:44
(UTC+00:00)

USA 234 - Pass Details

Date: 25 August 2019
Orbit: 1098 x 1109 km, 123.0° (Epoch: 21 September)

Event Time Altitude Azimuth Distance (km) Brightness Sun altitude
Exits shadow 18:19:30 - 148° (SSE) 3,632 5.4 -5.8°
Reaches altitude 10° 18:21:26 10° 155° (SSE) 2,962 5.0 -6.0°
Maximum altitude 18:27:21 35° 220° (SW) 1,698 4.4 -6.7°
Drops below altitude 10° 18:33:18 10° 285° (WNW) 2,979 6.9 -7.3°
Sets 18:36:04 0° 294° (WNW) 3,940 8.2 -7.6°
